Wind_Speed
26 26 27 26 27 27 27 27 28 28 28 29 29 29 30 30 31 31 32 33 33 33 34 34 34 34 35 35 36 36 37 38 38 39 40 41 42 42 43 43 43 44 44
28 28 28 28 28 28 28 29 29 29 30 30 31 31 31 32 32 33 34 34 35 35 35 35 36 36 37 37 37 38 39 39 40 41 43 43 44 45 46 46 46 46 46
29 29 29 30 30 30 30 30 30 31 31 32 32 32 33 34 34 35 35 36 36 36 36 37 38 38 39 39 40 40 41 42 43 44 45 46 47 47 48 48 49 49 49
30 30 30 31 31 32 31 32 32 32 32 33 33 34 34 35 35 36 36 37 37 37 38 38 39 40 41 41 42 43 44 45 45 46 47 48 49 49 50 50 51 51 51
31 32 31 32 32 32 32 33 33 33 34 34 34 35 35 35 36 36 37 37 38 38 39 40 41 42 43 43 44 45 46 47 48 49 50 50 51 51 51 52 52 52 53
32 32 32 32 33 33 33 34 34 35 35 35 35 36 36 36 37 37 38 38 39 40 40 41 42 43 44 45 46 47 49 50 50 51 52 52 52 52 53 53 54 54 55
34 33 33 34 35 35 35 35 36 36 36 36 37 37 37 38 38 38 39 39 40 41 41 43 44 45 46 47 48 49 50 51 52 53 53 53 53 54 55 55 56 56 56
35 35 35 36 36 36 37 37 37 38 38 38 38 38 38 38 39 39 40 41 41 42 43 44 46 47 48 49 49 50 51 52 53 54 55 55 55 56 57 57 57 57 57
36 36 37 37 37 37 38 38 38 38 38 38 38 39 40 40 40 40 42 42 43 44 45 46 47 49 49 50 51 52 53 54 55 56 56 56 55 56 56 57 57 58 59
37 38 37 37 37 38 38 38 39 39 39 39 39 40 41 42 42 42 42 44 45 45 47 48 49 50 51 51 52 53 54 55 56 56 56 56 57 57 57 57 58 59 59
38 38 38 38 38 38 39 39 39 40 40 41 41 41 42 43 44 43 43 44 45 46 48 49 50 51 52 53 54 55 56 57 57 57 57 57 57 57 57 58 59 60 60
38 38 38 39 39 39 39 40 40 40 41 41 41 42 43 44 44 44 45 45 45 46 48 49 51 51 52 53 55 56 57 58 58 57 57 58 58 58 58 59 59 60 60
39 39 39 39 39 39 40 40 40 40 41 42 42 43 44 44 45 45 46 46 46 47 48 50 50 51 53 54 55 56 57 57 57 57 58 58 58 58 59 59 60 60 60
40 40 40 40 39 40 40 40 40 41 42 43 43 44 44 45 46 47 47 48 48 49 49 50 50 52 53 54 55 55 55 56 56 57 58 59 58 58 58 59 59 59 57
40 40 40 40 40 40 40 40 41 42 43 43 44 45 45 46 47 48 49 50 51 50 49 50 51 52 53 54 55 55 55 56 57 57 58 58 58 57 57 57 56 54 52
40 40 40 40 40 40 40 41 42 43 44 44 45 45 46 46 47 48 49 50 51 51 50 50 51 53 54 54 55 55 56 57 57 57 57 56 55 54 54 53 52 50 48
41 40 40 40 40 41 41 42 42 43 44 44 45 46 46 47 47 48 49 50 50 51 51 51 52 53 54 54 54 55 55 56 56 55 54 52 51 51 50 49 48 46 46
40 40 40 40 40 41 41 42 43 43 44 44 45 45 46 46 47 48 49 50 50 51 51 52 52 53 53 53 54 54 54 54 53 52 50 49 49 48 47 46 44 43 44
40 40 40 41 41 41 42 42 43 44 44 44 44 44 45 46 46 48 48 49 50 51 52 52 52 52 52 52 53 53 53 53 51 49 48 47 47 46 44 42 41 41 42
40 40 41 41 41 42 42 42 43 43 44 43 43 44 44 45 46 47 48 49 49 50 51 51 51 51 51 51 51 51 51 49 47 46 45 45 43 42 41 40 39 38 37
41 41 41 41 41 41 41 42 43 42 42 42 43 43 44 45 46 47 48 48 49 49 49 49 49 49 49 49 49 49 48 45 43 43 42 40 39 39 39 37 36 34 33
40 41 40 40 40 40 40 41 41 41 41 42 42 43 44 45 46 47 47 47 48 48 48 48 48 48 48 48 47 46 45 43 41 40 39 38 37 37 36 34 33 31 30
39 40 40 40 40 40 40 40 41 41 42 42 43 44 45 45 45 45 45 46 46 47 47 47 47 46 46 45 44 43 42 41 40 39 37 35 35 34 33 32 30 28 27
38 39 39 39 40 40 41 41 41 41 42 42 43 45 45 45 44 45 45 45 45 46 46 45 45 44 43 43 42 41 40 38 37 36 35 34 33 31 31 29 28 26 25
38 38 39 39 40 41 41 41 42 42 42 42 43 44 44 44 44 45 45 44 44 44 43 43 42 41 41 41 40 38 37 35 34 34 34 33 31 29 28 27 27 26 24
38 39 39 39 40 40 40 41 41 42 42 43 44 44 43 44 44 44 44 43 43 42 41 40 39 39 38 37 36 35 35 35 34 33 32 31 30 28 26 26 25 24 23
Wind_Direction
264 266 269 271 272 274 276 278 279 280 281 282 282 283 283 284 285 287 288 289 289 289 289 288 288 288 289 289 289 289 289 288 287 287 287 286 286 285 284 284 283 281 280
265 267 269 272 273 275 276 277 278 280 281 282 282 283 284 284 285 287 289 289 289 289 288 287 287 288 288 288 288 289 289 289 289 288 287 287 286 286 285 284 283 282 281
265 267 269 272 273 275 276 276 278 280 281 282 283 283 284 285 285 287 288 289 289 288 288 288 288 288 288 289 289 290 290 290 290 290 289 288 287 286 285 284 283 282 281
265 268 270 272 274 275 276 277 278 280 281 282 283 283 284 284 285 287 288 289 289 289 289 289 289 289 289 289 290 290 291 291 291 290 290 289 288 287 286 285 284 284 283
265 268 270 273 274 275 276 278 280 281 282 282 283 283 284 285 286 287 288 289 289 289 290 290 290 291 290 290 291 291 291 291 291 291 291 290 289 288 287 286 285 284 283
266 268 271 273 275 276 277 279 281 282 282 283 283 283 284 285 286 287 288 289 290 290 291 291 292 292 292 292 292 292 292 292 292 292 292 290 289 288 287 286 285 284 283
266 268 271 274 275 276 277 279 281 282 283 283 283 284 284 285 286 287 288 289 290 291 291 292 292 293 292 293 293 293 293 293 293 293 292 290 289 288 287 286 285 285 284
267 269 272 274 275 276 277 278 280 281 282 283 284 284 284 284 285 286 288 288 289 290 291 292 293 293 294 294 294 294 294 294 294 294 292 292 291 290 288 287 286 285 284
267 269 272 273 274 276 277 279 280 281 282 283 284 285 284 283 284 286 287 288 289 290 291 292 293 294 294 295 295 295 295 295 295 294 293 293 293 292 290 288 287 286 285
267 270 272 273 275 276 278 279 280 281 282 283 285 286 286 285 286 287 287 288 290 291 292 293 295 295 295 296 296 296 296 297 297 296 294 293 293 292 291 289 288 287 286
268 270 272 274 275 277 278 279 280 281 282 283 284 286 287 286 287 289 289 289 291 293 294 295 295 296 296 296 297 297 298 298 297 296 295 293 293 292 291 290 289 289 288
268 271 272 274 275 277 278 279 280 281 283 284 285 286 287 287 287 289 290 291 292 294 296 296 297 297 298 298 298 299 299 298 297 297 296 294 293 292 291 291 291 290 289
269 271 272 274 275 277 278 279 281 282 283 284 286 287 288 288 289 290 291 291 293 295 296 297 298 298 299 299 300 300 299 299 298 298 297 295 294 293 292 292 292 291 290
269 270 272 274 275 277 278 280 281 282 284 285 286 287 288 289 289 290 291 292 293 295 296 297 298 299 299 300 301 301 301 301 300 299 298 297 296 294 293 292 292 292 291
268 270 271 273 275 277 278 280 282 283 284 286 287 288 289 290 291 291 292 293 294 296 296 298 299 300 301 301 302 302 302 302 303 302 301 299 298 297 297 295 294 294 292
267 269 272 273 274 276 278 280 282 283 285 286 288 289 290 291 292 293 293 294 295 296 297 299 300 301 301 302 302 303 303 304 304 303 302 301 301 300 299 297 297 295 293
267 269 271 273 274 276 278 280 282 284 286 287 288 289 290 291 292 293 294 295 296 297 298 300 301 302 302 302 302 303 305 305 305 304 304 303 302 302 301 300 298 295 294
268 269 271 272 274 277 279 281 283 284 286 287 289 290 291 292 293 294 295 296 297 297 299 300 302 303 303 303 304 305 306 306 307 306 306 305 305 304 303 302 299 297 295
268 270 272 273 274 276 279 281 283 285 286 287 289 290 291 293 294 295 297 297 298 299 300 301 303 304 304 304 305 306 307 307 307 307 306 306 306 305 304 304 302 301 299
267 269 271 273 275 277 279 281 283 285 286 287 289 290 292 293 295 296 297 298 299 300 301 302 304 304 305 305 306 307 307 308 307 307 307 307 307 306 306 306 306 305 304
267 269 271 273 275 277 280 281 283 285 286 287 289 290 292 293 295 297 298 299 300 301 302 304 305 305 306 306 307 308 308 309 309 309 309 309 309 308 307 307 309 309 307
267 269 270 272 274 277 279 282 283 284 286 288 289 291 292 294 297 298 299 300 301 302 303 304 305 306 307 307 308 309 310 310 310 310 310 310 311 311 310 309 311 311 310
267 269 271 272 275 277 279 281 283 285 286 288 290 291 293 296 297 298 300 301 301 302 304 305 306 307 308 308 309 309 311 312 313 313 312 313 314 313 312 312 312 312 313
267 269 270 272 275 278 280 281 282 285 287 289 292 293 294 296 297 298 299 301 302 304 305 306 307 308 308 309 310 311 312 313 314 314 314 315 315 316 314 313 314 315 315
267 269 271 273 277 279 281 281 282 285 287 290 293 295 295 296 297 298 299 301 302 304 305 306 307 307 308 310 311 312 313 315 316 315 315 315 316 316 315 316 316 314 314
267 269 272 275 278 280 281 282 283 285 287 290 292 295 295 295 296 298 299 301 302 304 305 306 307 307 309 310 312 313 315 316 317 317 316 316 317 315 314 315 316 315 315
Height
5829 5829 5828 5828 5827 5827 5826 5825 5824 5823 5821 5820 5819 5817 5816 5814 5812 5810 5808 5806 5804 5802 5800 5797 5795 5793 5790 5788 5786 5783 5781 5778 5776 5773 5770 5768 5765 5763 5761 5758 5756 5755 5753
5823 5823 5823 5823 5822 5821 5820 5819 5818 5817 5816 5814 5813 5811 5809 5807 5806 5804 5801 5799 5797 5795 5792 5790 5787 5785 5782 5780 5777 5775 5772 5769 5766 5763 5761 5758 5755 5752 5750 5747 5745 5743 5741
5818 5817 5817 5817 5816 5815 5814 5813 5812 5811 5809 5808 5806 5804 5802 5800 5798 5796 5794 5792 5789 5787 5784 5782 5779 5776 5774 5771 5768 5765 5763 5760 5756 5753 5750 5747 5744 5741 5738 5735 5733 5731 5729
5811 5811 5811 5810 5810 5809 5808 5807 5805 5804 5802 5801 5799 5797 5795 5793 5791 5789 5786 5784 5781 5779 5776 5773 5771 5768 5765 5762 5759 5756 5753 5749 5746 5742 5739 5736 5732 5729 5725 5722 5720 5717 5715
5805 5805 5804 5804 5803 5802 5801 5800 5798 5797 5795 5794 5792 5790 5788 5785 5783 5781 5778 5776 5773 5770 5768 5765 5762 5759 5755 5752 5749 5745 5742 5738 5735 5731 5727 5723 5719 5716 5712 5709 5706 5704 5701
5798 5798 5797 5797 5796 5795 5794 5793 5791 5789 5788 5786 5784 5782 5780 5777 5775 5773 5770 5767 5765 5762 5758 5755 5752 5749 5746 5742 5738 5734 5730 5727 5723 5719 5714 5710 5706 5703 5699 5695 5692 5689 5686
5791 5790 5790 5789 5789 5788 5786 5785 5784 5782 5780 5778 5776 5774 5772 5769 5766 5764 5761 5758 5756 5752 5749 5746 5742 5739 5735 5731 5727 5723 5719 5715 5710 5706 5701 5697 5693 5689 5685 5681 5677 5674 5671
5783 5783 5782 5782 5781 5780 5778 5777 5776 5774 5772 5769 5767 5765 5763 5762 5758 5756 5753 5749 5746 5743 5740 5736 5732 5728 5724 5720 5716 5712 5707 5702 5697 5692 5687 5683 5678 5673 5669 5665 5661 5658 5654
5775 5775 5774 5774 5773 5771 5770 5769 5767 5765 5763 5761 5758 5755 5753 5752 5750 5747 5744 5740 5737 5733 5730 5726 5721 5717 5713 5708 5704 5699 5694 5689 5684 5678 5673 5668 5663 5658 5653 5649 5645 5642 5638
5767 5767 5766 5765 5764 5763 5762 5760 5758 5756 5754 5752 5749 5746 5744 5741 5738 5737 5735 5731 5726 5723 5718 5714 5710 5705 5701 5696 5691 5686 5681 5675 5670 5664 5658 5653 5648 5643 5638 5634 5629 5625 5621
5759 5759 5758 5757 5756 5754 5753 5751 5749 5747 5745 5742 5740 5737 5734 5731 5728 5726 5724 5721 5717 5712 5707 5703 5698 5693 5689 5683 5678 5673 5667 5661 5655 5650 5644 5638 5633 5628 5623 5618 5613 5609 5604
5750 5750 5749 5748 5747 5745 5744 5742 5740 5738 5735 5733 5730 5728 5725 5722 5719 5715 5713 5710 5707 5702 5696 5691 5686 5681 5676 5670 5665 5659 5653 5647 5641 5635 5629 5623 5618 5612 5607 5602 5597 5592 5586
5742 5741 5740 5739 5738 5736 5735 5733 5731 5728 5726 5723 5721 5718 5715 5711 5708 5704 5701 5699 5696 5692 5686 5680 5674 5669 5663 5658 5652 5645 5639 5632 5626 5620 5614 5608 5602 5597 5591 5586 5581 5575 5569
5733 5732 5731 5730 5729 5727 5726 5724 5722 5719 5716 5714 5711 5708 5704 5701 5697 5694 5690 5687 5684 5681 5676 5670 5664 5657 5651 5645 5639 5632 5625 5618 5612 5605 5599 5593 5587 5581 5575 5570 5564 5558 5553
5723 5723 5722 5721 5720 5718 5717 5715 5712 5709 5707 5704 5701 5697 5694 5690 5686 5682 5678 5674 5670 5667 5664 5659 5653 5646 5639 5632 5625 5618 5612 5605 5598 5590 5584 5577 5571 5565 5559 5553 5548 5542 5537
5714 5713 5713 5712 5711 5709 5708 5705 5703 5700 5697 5694 5691 5687 5683 5680 5676 5672 5667 5663 5658 5654 5650 5647 5640 5634 5627 5620 5613 5605 5598 5591 5584 5577 5569 5563 5557 5551 5545 5539 5534 5528 5523
5704 5704 5703 5702 5701 5700 5698 5696 5693 5690 5687 5684 5680 5677 5673 5669 5665 5661 5656 5652 5647 5642 5638 5635 5628 5621 5614 5607 5601 5593 5585 5578 5571 5563 5556 5549 5543 5537 5531 5526 5520 5515 5510
5695 5695 5694 5693 5692 5690 5689 5686 5684 5681 5678 5674 5671 5667 5663 5659 5655 5650 5646 5641 5636 5631 5627 5623 5617 5610 5603 5595 5588 5581 5574 5566 5559 5551 5544 5537 5531 5525 5519 5514 5508 5503 5498
5685 5685 5685 5684 5683 5681 5679 5677 5674 5671 5668 5664 5661 5657 5653 5649 5645 5640 5635 5630 5626 5620 5615 5610 5605 5598 5591 5584 5577 5570 5562 5555 5547 5540 5533 5527 5520 5514 5508 5502 5497 5492 5486
5675 5675 5675 5674 5673 5671 5669 5667 5664 5661 5658 5654 5651 5647 5644 5640 5635 5630 5625 5620 5615 5610 5604 5598 5593 5587 5580 5573 5565 5559 5553 5545 5537 5530 5524 5517 5510 5504 5498 5493 5488 5482 5476
5665 5665 5665 5664 5663 5661 5659 5657 5654 5651 5648 5645 5641 5638 5634 5630 5625 5620 5615 5610 5605 5599 5593 5588 5582 5576 5569 5562 5555 5548 5541 5535 5528 5521 5515 5508 5502 5496 5490 5484 5479 5474 5468
5655 5655 5655 5654 5653 5651 5649 5647 5644 5641 5638 5635 5632 5628 5625 5620 5615 5610 5605 5600 5594 5589 5583 5577 5571 5565 5559 5552 5545 5538 5531 5526 5521 5515 5507 5501 5494 5488 5482 5477 5472 5467 5462
5646 5645 5645 5644 5643 5641 5639 5637 5634 5632 5629 5626 5622 5619 5615 5610 5606 5601 5596 5591 5585 5578 5573 5567 5561 5554 5548 5542 5536 5530 5523 5516 5510 5504 5498 5493 5487 5481 5475 5470 5466 5461 5456
5636 5636 5635 5634 5633 5631 5629 5627 5625 5622 5619 5616 5613 5609 5605 5601 5596 5592 5587 5582 5576 5570 5564 5557 5551 5545 5538 5532 5526 5520 5515 5510 5504 5496 5490 5487 5482 5476 5470 5465 5461 5456 5452
5627 5626 5625 5624 5623 5621 5619 5617 5615 5613 5610 5607 5603 5599 5595 5591 5587 5583 5578 5573 5568 5561 5555 5548 5542 5536 5530 5524 5518 5513 5508 5502 5498 5492 5485 5480 5476 5471 5466 5461 5456 5451 5447
5617 5616 5615 5614 5613 5611 5609 5607 5605 5603 5600 5597 5594 5590 5586 5581 5577 5572 5568 5563 5558 5553 5547 5541 5535 5529 5523 5517 5511 5506 5501 5495 5490 5486 5480 5475 5470 5465 5461 5457 5452 5447 5443